Flag for Germany Weather past 2 weeks in Melsungen, Hesse, Germany

Now
41 °F

Low clouds.


Feels Like: 36 °F
Forecast: 36 / 44 °F
Wind: 7 mph from Southwest

Location: Fritzlar

Current Time: Mar 1, 2015 at 12:38:20 PM

Latest Report: Mar 1, 2015 at 12:00 PM


Visibility: 8 mi

Pressure: 29.67 "Hg

Humidity: 90%

Dew point: 38 °F

Location of MelsungenLocation

Historic Weather in Melsungen — Graph

°F

Melsungen temperature yesterday

Maximum temperature yesterday: 43 °F (at 4:00 PM)
Minimum temperature yesterday: 30 °F (at 7:00 AM)
Average temperature yesterday: 36 °F

Past Weeks' High & Low Weather Summary

 TemperatureHumidityPressure
High47 °F (Feb 21, 12:00 AM)97% (Feb 18, 6:00 AM)30.78 "Hg (Feb 18, 6:00 AM)
Low21 °F (Feb 16, 7:00 AM)51% (Feb 22, 4:00 PM)29.41 "Hg (Feb 21, 7:00 AM)
Average36 °F82%30.01 "Hg
* Reported Feb 14 11:00 AM — Mar 1 11:00 AM, Melsungen, Weather by CustomWeather, © 2015

Note: Actual official high and low records may vary slightly from our data, if they occured in-between our weather recording intervals... More about our weather records

Advertising

Melsungen weather history for previous 24 hours

 ConditionsComfort  
Time TempWeatherWind HumidityBarometerVisibility
11:00 AM
Sun, Mar 1
39 °FLow clouds.8 mph90%29.68 "Hg7 mi
10:00 AM38 °FDrizzle. Low clouds.3 mph91%29.67 "Hg4 mi
9:00 AM37 °FDrizzle. Low clouds.6 mph89%29.68 "Hg5 mi
8:00 AM37 °FDrizzle. Low clouds.7 mph89%29.68 "Hg5 mi
7:00 AM36 °FDrizzle. Low clouds.7 mph89%29.70 "Hg4 mi
6:00 AM38 °FLight rain. Overcast.9 mph78%29.70 "Hg9 mi
5:00 AM39 °FOvercast.8 mph69%29.72 "Hg9 mi
4:00 AM38 °FOvercast.6 mph71%29.76 "Hg9 mi
3:00 AM38 °FOvercast.5 mph70%29.80 "Hg9 mi
2:00 AM36 °FOvercast.7 mph70%29.84 "Hg12 mi
1:00 AM33 °FPassing clouds.3 mph76%29.89 "Hg12 mi
12:00 AM35 °FPassing clouds.N/A69%29.93 "Hg12 mi
11:00 PM
Sat, Feb 28
34 °FPassing clouds.3 mph74%29.94 "Hg12 mi
10:00 PM35 °FPassing clouds.3 mph73%29.98 "Hg12 mi
9:00 PM36 °FPassing clouds.3 mph70%30.01 "Hg12 mi
8:00 PM34 °FPassing clouds.3 mph72%30.02 "Hg16 mi
7:00 PM37 °FPassing clouds.3 mph67%30.03 "Hg17 mi
6:00 PM40 °FPassing clouds.5 mph68%30.03 "Hg19 mi
5:00 PM42 °FPassing clouds.5 mph65%30.05 "Hg16 mi
4:00 PM43 °FScattered clouds.5 mph62%30.09 "Hg16 mi
3:00 PM42 °FPartly sunny.7 mph62%30.10 "Hg14 mi
2:00 PM40 °FPartly sunny.5 mph71%30.13 "Hg12 mi
1:00 PM38 °FScattered clouds.6 mph75%30.15 "Hg9 mi
12:00 PM38 °FScattered clouds.6 mph80%30.16 "Hg11 mi
Weather by CustomWeather, © 2015

See weather overviewHow to use our weather pages